SCOUT B-1 DEB

Satellite information

Favourite Embed

Satellite Type and Status

DEBRISIN ORBIT

Key statistics

Satellite SCOUT B-1 DEB at a glance.

Uptime

19461

Days in orbit

Revolutions

≈ 14.7

Per day

Orbit

SSO

Sun Synchronous Orbit

Inclination

90.5

Latest

Satellite identification and parameters

Extended collection of information and parameters for SCOUT B-1 DEB.

Object identification

Identified? True

Debris? True

Object name: SCOUT B-1 DEB

International designator: 1972-069D

Object number (NORAD): 6284

Object ID (CCSDS): 6284

Country: UNITED STATES OF AMERICA (US)

Current information (Y/N): Y

RCS size: SMALL

Orbital parameters

Period: 97.75 minutes

Inclination: 90.4631 deg

SMA: 7029.161 km

Apoapsis: 679.529 km

Periapsis: 622.523 km

RAAN: 338.4488 deg

Eccentricy: 0.004055

Argument of periapsis: 125.6033 deg

Mean anomaly: 234.8976 deg

Mean motion: 14.7315186 rev/day

Mean motion (dot): 0.00004595 rev/day2

B* drag term: 0.00070204 1/REarth

Two-line elements (TLE)

Creation date: Dec. 12, 2025, 7:06 a.m.

Reference frame: TEME

Reference center: EARTH

Epoch: Dec. 11, 2025, 11:20 p.m. UTC

TLE line 0: 0 SCOUT B-1 DEB

TLE line 1: 1 6284U 72069D 25345.97257958 .00004595 00000-0 70204-3 0 9994

TLE line 2: 2 6284 90.4631 338.4488 0040550 125.6033 234.8976 14.73151860720775

Live tracking on map

Real-time ground track for satellite SCOUT B-1 DEB.

In-orbit conjunctions

A list of the most updated potential collisions computed for object SCOUT B-1 DEB.

Target Orbit TCA Probability of collision Miss distance Type
IRIDIUM 33 DEB LEO 2024-11-11 23:55:32 0.0005924194 162.0 (m) DEBRIS
THOR ABLESTAR DEB LEO 2024-09-13 19:03:52 0.0001053358 546.0 (m) DEBRIS

Associated space launch

Satellite designed to accurately measure atmospheric drag in order to improve the accuracy of the USN Transit Navigation System

SCOUT B-1 DEB was lifted into orbit during the mission ‘Scout B-1 | Triad 1’, on board a Scout B-1 space rocket.

The launch took place on Sept. 2, 1972, 5:50 p.m. from Space Launch Complex 5.

For more information about the launch, click the button.

Launch to space Scout B-1 | Triad 1
Scout B-1 | Triad 1

Agency: N/A

Status: Launch Successful

Launch date: Sept. 2, 1972, 5:50 p.m. UTC

Rocket: Scout B-1

Launch pad: Space Launch Complex 5

Location: Vandenberg SFB, CA, USA

...

Latest news about this satellite

There are no fresh news available about this satellite. Check back as we update our databases every day.


Newsletter sign-up

Weekly statistics, charts and insights to help you stay on top of the space industry.